FW8685 Weather Reports


Display with metric or nautical units.
time (UTC)temp
F
wind
direction
speed
MPH
gust
MPH
rain 1hr
in
rain 24hr
in
rain mn
in
humidity
%
barometer
mb
20260504031537 69 174 11.0 22.0 0.00 0.00 0.00 44 1005.5
20260504031021 69 187 11.0 20.0 0.00 0.00 0.00 43 1005.6
20260504030521 69 175 11.0 19.0 0.00 0.00 0.00 43 1005.5
20260504030042 69 160 10.0 18.0 0.00 0.00 0.00 43 1005.6
20260504025521 70 182 10.0 18.0 0.00 0.00 0.00 42 1005.5
20260504025023 70 178 12.0 18.0 0.00 0.00 0.00 42 1005.7
20260504024538 70 152 11.0 18.0 0.00 0.00 0.00 41 1005.7
20260504024023 70 169 10.0 17.0 0.00 0.00 0.00 41 1005.7
20260504023521 71 192 9.0 17.0 0.00 0.00 0.00 41 1005.6
20260504023040 71 172 9.0 18.0 0.00 0.00 0.00 40 1005.6
20260504022524 71 167 9.0 18.0 0.00 0.00 0.00 40 1005.6
20260504022022 71 197 10.0 17.0 0.00 0.00 0.00 40 1005.6
20260504021538 71 176 9.0 15.0 0.00 0.00 0.00 40 1005.6
20260504021021 71 159 9.0 16.0 0.00 0.00 0.00 39 1005.5
20260504020521 72 194 8.0 17.0 0.00 0.00 0.00 39 1005.5
20260504020037 72 173 9.0 17.0 0.00 0.00 0.00 39 1005.5
20260504015522 72 182 10.0 18.0 0.00 0.00 0.00 38 1005.5
20260504015021 72 188 9.0 18.0 0.00 0.00 0.00 37 1005.5
20260504014536 73 190 9.0 15.0 0.00 0.00 0.00 37 1005.4
20260504014020 73 188 9.0 15.0 0.00 0.00 0.00 36 1005.4
20260504013522 73 165 8.0 15.0 0.00 0.00 0.00 35 1005.5
20260504013047 74 194 8.0 14.0 0.00 0.00 0.00 34 1005.4
20260504012525 74 172 7.0 14.0 0.00 0.00 0.00 33 1005.4
20260504012022 75 182 6.0 10.0 0.00 0.00 0.00 32 1005.3
20260504011541 76 175 6.0 11.0 0.00 0.00 0.00 30 1005.3
20260504011021 77 207 6.0 11.0 0.00 0.00 0.00 29 1005.4
20260504010521 77 217 7.0 11.0 0.00 0.00 0.00 29 1005.3
20260504010038 78 213 6.0 13.0 0.00 0.00 0.00 29 1005.4
20260504005524 78 215 7.0 13.0 0.00 0.00 0.00 28 1005.4
20260504005025 78 206 7.0 15.0 0.00 0.00 0.00 28 1005.5
20260504004537 79 196 7.0 15.0 0.00 0.00 0.00 27 1005.5
20260504004026 79 215 7.0 15.0 0.00 0.00 0.00 27 1005.5
20260504003525 79 214 8.0 15.0 0.00 0.00 0.00 27 1005.6
20260504003037 80 246 7.0 16.0 0.00 0.00 0.00 26 1005.7
20260504002525 80 219 8.0 16.0 0.00 0.00 0.00 26 1005.7
20260504002024 80 211 8.0 18.0 0.00 0.00 0.00 26 1005.7
20260504001557 81 205 7.0 19.0 0.00 0.00 0.00 25 1005.8
20260504001025 81 207 8.0 19.0 0.00 0.00 0.00 26 1005.8
20260504000525 81 208 7.0 19.0 0.00 0.00 0.00 25 1005.9
20260504000040 82 234 10.0 19.0 0.00 0.00 0.00 25 1005.8
20260503235524 82 234 8.0 17.0 0.00 0.00 0.00 24 1005.9
20260503235025 82 239 8.0 17.0 0.00 0.00 0.00 24 1005.9
20260503234540 83 235 8.0 22.0 0.00 0.00 0.00 22 1006.0
20260503234022 83 259 12.0 22.0 0.00 0.00 0.00 22 1006.1
20260503233526 84 213 9.0 20.0 0.00 0.00 0.00 22 1006.1
20260503233040 85 236 11.0 20.0 0.00 0.00 0.00 22 1006.1
20260503232524 85 238 8.0 17.0 0.00 0.00 0.00 23 1006.1
20260503232021 85 242 10.0 20.0 0.00 0.00 0.00 22 1006.1
20260503231537 85 225 9.0 20.0 0.00 0.00 0.00 23 1006.2
20260503231021 85 239 10.0 27.0 0.00 0.00 0.00 21 1006.1
20260503230527 85 215 14.0 27.0 0.00 0.00 0.00 21 1006.1
20260503230037 86 231 12.0 23.0 0.00 0.00 0.00 20 1006.2
20260503225521 86 250 12.0 20.0 0.00 0.00 0.00 21 1006.2
20260503225024 86 218 7.0 19.0 0.00 0.00 0.00 22 1006.2
20260503224536 85 217 12.0 19.0 0.00 0.00 0.00 21 1006.3
20260503224022 85 226 12.0 20.0 0.00 0.00 0.00 20 1006.3
20260503223524 86 235 12.0 21.0 0.00 0.00 0.00 19 1006.4
20260503223041 86 246 12.0 21.0 0.00 0.00 0.00 21 1006.4
20260503222524 86 249 12.0 24.0 0.00 0.00 0.00 21 1006.4
20260503222021 86 198 12.0 24.0 0.00 0.00 0.00 21 1006.3
20260503221543 86 210 11.0 21.0 0.00 0.00 0.00 20 1006.5
20260503221026 86 226 10.0 23.0 0.00 0.00 0.00 20 1006.5
20260503220522 87 229 12.0 23.0 0.00 0.00 0.00 20 1006.6
20260503220040 87 226 11.0 22.0 0.00 0.00 0.00 21 1006.7
20260503215522 87 250 9.0 22.0 0.00 0.00 0.00 20 1006.7
20260503215025 86 235 10.0 25.0 0.00 0.00 0.00 21 1006.8
20260503214540 86 279 12.0 25.0 0.00 0.00 0.00 20 1006.9
20260503214022 87 238 14.0 25.0 0.00 0.00 0.00 21 1007.0
20260503213523 87 254 15.0 22.0 0.00 0.00 0.00 20 1007.1
20260503213043 86 267 12.0 26.0 0.00 0.00 0.00 20 1007.3
20260503212521 87 242 15.0 26.0 0.00 0.00 0.00 20 1007.3
20260503212021 87 248 10.0 26.0 0.00 0.00 0.00 21 1007.3
20260503211537 87 242 14.0 26.0 0.00 0.00 0.00 20 1007.4
20260503211022 86 227 12.0 22.0 0.00 0.00 0.00 20 1007.5
20260503210525 86 215 10.0 22.0 0.00 0.00 0.00 21 1007.6
20260503210036 86 260 12.0 22.0 0.00 0.00 0.00 21 1007.6
20260503205522 86 232 9.0 19.0 0.00 0.00 0.00 21 1007.8
20260503205022 86 229 9.0 23.0 0.00 0.00 0.00 21 1007.9
20260503204544 86 220 12.0 23.0 0.00 0.00 0.00 21 1007.8
20260503204022 86 271 13.0 23.0 0.00 0.00 0.00 19 1008.1
20260503203522 87 224 13.0 23.0 0.00 0.00 0.00 19 1008.2
20260503203042 86 287 12.0 25.0 0.00 0.00 0.00 20 1008.2
20260503202522 86 278 13.0 25.0 0.00 0.00 0.00 21 1008.3
20260503202022 86 240 12.0 25.0 0.00 0.00 0.00 21 1008.4
20260503201539 86 213 11.0 20.0 0.00 0.00 0.00 21 1008.5
20260503201024 85 244 11.0 25.0 0.00 0.00 0.00 20 1008.5
20260503200521 86 188 15.0 25.0 0.00 0.00 0.00 20 1008.6
20260503200038 86 228 9.0 25.0 0.00 0.00 0.00 20 1008.6
20260503195521 86 241 12.0 25.0 0.00 0.00 0.00 20 1008.7
20260503195021 86 258 10.0 20.0 0.00 0.00 0.00 20 1008.7
20260503194539 86 231 11.0 20.0 0.00 0.00 0.00 20 1008.9
20260503194023 85 198 10.0 25.0 0.00 0.00 0.00 20 1009.0
20260503193522 85 188 14.0 25.0 0.00 0.00 0.00 19 1008.9
20260503193039 86 225 11.0 24.0 0.00 0.00 0.00 21 1009.0
20260503192522 85 288 8.0 26.0 0.00 0.00 0.00 23 1009.1
20260503192021 85 234 15.0 26.0 0.00 0.00 0.00 20 1009.2
20260503191538 85 225 13.0 26.0 0.00 0.00 0.00 21 1009.2
20260503191022 85 250 13.0 23.0 0.00 0.00 0.00 21 1009.3
20260503190523 85 310 11.0 25.0 0.00 0.00 0.00 24 1009.4
20260503190046 84 206 13.0 27.0 0.00 0.00 0.00 22 1009.5
20260503185521 84 204 14.0 27.0 0.00 0.00 0.00 22 1009.6
20260503185021 84 238 10.0 23.0 0.00 0.00 0.00 23 1009.7
20260503184539 84 268 12.0 25.0 0.00 0.00 0.00 24 1009.6
20260503184023 84 269 13.0 25.0 0.00 0.00 0.00 26 1009.7
20260503183521 84 289 12.0 23.0 0.00 0.00 0.00 26 1009.9
20260503183054 84 270 12.0 23.0 0.00 0.00 0.00 27 1009.9
20260503182521 83 269 13.0 23.0 0.00 0.00 0.00 27 1010.0
20260503182022 83 227 11.0 22.0 0.00 0.00 0.00 32 1010.1
20260503181539 82 266 11.0 22.0 0.00 0.00 0.00 30 1010.2
20260503181022 82 242 11.0 22.0 0.00 0.00 0.00 30 1010.4
20260503180522 82 243 11.0 20.0 0.00 0.00 0.00 30 1010.6
20260503180049 82 214 9.0 18.0 0.00 0.00 0.00 33 1010.7
20260503175521 81 229 8.0 19.0 0.00 0.00 0.00 34 1010.8
20260503175022 80 259 10.0 20.0 0.00 0.00 0.00 32 1010.9
20260503174538 80 238 11.0 22.0 0.00 0.00 0.00 35 1011.0
20260503174022 80 250 12.0 22.0 0.00 0.00 0.00 33 1011.1
20260503173522 80 227 10.0 17.0 0.00 0.00 0.00 35 1011.2
20260503173051 80 244 8.0 15.0 0.00 0.00 0.00 35 1011.2
20260503172521 79 327 8.0 16.0 0.00 0.00 0.00 34 1011.3
20260503172020 79 220 8.0 16.0 0.00 0.00 0.00 40 1011.3
20260503171543 78 241 9.0 20.0 0.00 0.00 0.00 36 1011.3
20260503171022 78 256 8.0 20.0 0.00 0.00 0.00 36 1011.4
20260503170521 78 229 10.0 17.0 0.00 0.00 0.00 36 1011.4
20260503150522 68 242 7.0 17.0 0.00 0.00 0.00 54 1012.7
20260503131023 50 197 6.0 11.0 0.00 0.00 0.00 82 1013.0
20260503130522 49 189 6.0 11.0 0.00 0.00 0.00 84 1013.0
20260503110523 43 186 4.0 6.0 0.00 0.00 0.00 81 1013.3
20260503081545 44 187 5.0 10.0 0.00 0.00 0.00 79 1014.5
20260503081022 44 161 6.0 10.0 0.00 0.00 0.00 79 1014.5
20260503080525 44 195 6.0 11.0 0.00 0.00 0.00 79 1014.7
20260503072523 43 194 4.0 6.0 0.00 0.00 0.00 76 1015.0
20260503072024 44 176 3.0 6.0 0.00 0.00 0.00 75 1014.9
20260503071546 44 180 3.0 5.0 0.00 0.00 0.00 75 1015.0
20260503071022 44 186 3.0 5.0 0.00 0.00 0.00 74 1015.0
20260503070522 44 164 3.0 5.0 0.00 0.00 0.00 74 1015.1
20260503055022 47 165 4.0 5.0 0.00 0.02 0.00 69 1015.6
20260503054541 47 156 2.0 4.0 0.00 0.02 0.00 69 1015.6
20260503054022 47 140 3.0 4.0 0.00 0.02 0.00 68 1015.7
20260503053523 47 140 2.0 3.0 0.00 0.02 0.00 67 1015.8
20260503053037 48 140 2.0 3.0 0.00 0.02 0.00 66 1015.8
20260503052524 48 140 2.0 3.0 0.00 0.02 0.00 67 1015.8
20260503052022 48 140 2.0 4.0 0.00 0.02 0.00 67 1015.8
20260503051550 48 136 1.0 4.0 0.00 0.02 0.00 67 1015.8
20260503051025 48 134 3.0 4.0 0.00 0.02 0.00 67 1015.8
20260503050526 48 128 3.0 5.0 0.00 0.02 0.00 67 1015.8
20260503050041 48 144 2.0 5.0 0.00 0.02 0.00 67 1015.9
20260503045527 48 150 2.0 5.0 0.00 0.04 0.02 67 1015.9
20260503045025 48 147 2.0 4.0 0.00 0.04 0.02 66 1015.9
20260503044538 48 159 2.0 4.0 0.00 0.04 0.02 65 1015.8
20260503044024 48 154 2.0 3.0 0.00 0.04 0.02 65 1015.9
20260503043524 48 148 2.0 4.0 0.00 0.04 0.02 65 1015.9
20260503043037 48 147 2.0 5.0 0.00 0.04 0.02 64 1015.9
20260503042525 49 163 3.0 5.0 0.00 0.04 0.02 64 1015.8
20260503042027 49 157 2.0 5.0 0.00 0.04 0.02 63 1015.8
20260503041537 49 146 3.0 5.0 0.00 0.04 0.02 63 1015.8
20260503041024 49 167 4.0 5.0 0.00 0.04 0.02 61 1015.8
20260503040529 50 165 2.0 5.0 0.00 0.04 0.02 60 1015.8
20260503040037 50 147 2.0 5.0 0.00 0.04 0.02 60 1015.7
20260503035524 50 159 2.0 5.0 0.00 0.04 0.02 60 1015.8
20260503035025 50 151 2.0 5.0 0.00 0.04 0.02 59 1015.8
20260503034540 51 144 2.0 4.0 0.00 0.04 0.02 59 1015.9
20260503034024 51 144 2.0 3.0 0.00 0.04 0.02 57 1015.9
20260503033525 51 144 2.0 3.0 0.00 0.04 0.02 56 1015.9
20260503033044 52 144 2.0 3.0 0.00 0.04 0.02 54 1015.9
20260503032525 52 144 2.0 3.0 0.00 0.04 0.02 55 1015.8
20260503032025 52 144 2.0 3.0 0.00 0.04 0.02 55 1015.9